Temp
21 20 21 20 20 20 21 22 22 22 22 22 22 21 21 20 20 20 20 20 20 20 20 20 20 20 19 19 19 19 19 19 20 20 20 19 19 18 18 19 19 19 19 19 19 19 19 19 19 18 18 18 18 18 18 18 18 18 18 18 18 18 18 18 18 17 17 17 17 17 17 17 17 17 16 16 16 16 16 16 17 17 17 16 16
20 20 21 20 20 20 21 21 22 22 21 22 22 21 20 20 20 20 20 20 20 20 20 20 19 19 19 19 19 19 19 19 19 20 20 20 19 19 18 18 19 19 19 19 19 19 19 19 18 18 18 18 18 18 18 18 17 17 17 18 18 17 17 17 17 17 17 17 17 17 17 17 17 17 16 16 16 16 16 16 17 17 17 16 16
20 20 21 20 20 20 21 21 22 21 21 21 21 21 21 20 20 20 20 20 20 19 19 19 19 19 19 19 19 19 19 20 20 20 20 20 19 19 18 18 18 19 19 18 18 18 18 18 18 18 18 18 18 18 18 17 17 17 17 17 17 17 17 17 17 17 17 17 17 17 17 17 17 17 16 16 16 16 16 16 17 17 16 16 15
20 20 20 20 20 20 21 21 22 21 21 21 21 21 21 20 19 19 19 19 19 19 19 19 19 19 19 19 20 20 20 20 20 19 19 19 19 18 18 18 18 18 18 18 18 18 18 18 18 18 18 18 18 18 17 17 17 17 17 17 17 17 17 17 17 17 17 17 17 17 17 17 17 16 16 16 16 16 16 16 16 16 16 16 15
20 20 20 20 20 20 21 21 22 21 21 21 21 21 21 21 20 19 19 19 19 19 20 19 20 20 20 20 20 20 20 20 19 19 19 19 19 19 19 18 18 18 18 18 18 18 18 18 18 18 18 18 18 17 17 17 17 17 17 17 17 17 17 17 17 17 17 17 17 18 18 18 17 16 16 16 16 16 16 16 16 16 16 16 15
20 20 20 20 19 20 21 21 22 22 21 21 21 21 21 21 21 20 20 20 20 20 20 20 20 20 20 20 20 20 19 19 19 19 19 19 19 19 19 19 18 18 18 18 18 18 18 18 18 18 18 18 18 17 17 17 17 17 17 17 17 17 17 17 17 17 17 17 17 18 18 18 18 17 16 16 16 16 16 16 16 16 16 16 15
20 20 20 20 19 20 21 21 21 22 21 21 21 21 21 21 21 21 21 21 20 20 20 20 20 20 20 20 19 19 19 19 19 19 19 19 19 19 19 19 18 18 18 18 18 18 18 18 18 18 18 18 17 17 17 17 17 17 17 17 17 17 17 17 17 17 17 17 18 18 18 18 18 17 16 16 16 16 16 16 16 16 16 16 15
20 20 20 20 19 20 21 21 21 21 21 21 21 21 21 21 21 21 21 21 21 20 20 20 20 20 19 19 19 19 19 19 19 19 19 19 18 18 18 19 18 18 18 18 18 18 18 18 18 18 17 18 18 17 17 17 17 17 17 17 17 17 17 17 17 17 17 17 18 18 18 18 18 17 16 16 16 16 16 16 16 16 16 15 15
20 20 19 20 19 20 20 21 21 21 21 21 20 20 20 20 20 21 21 20 20 20 20 20 19 19 19 19 19 19 19 19 19 19 19 19 19 18 18 19 18 18 18 18 18 18 18 18 18 18 18 18 18 18 17 17 17 17 17 17 17 17 17 17 17 17 17 17 18 18 18 18 18 18 17 16 16 16 16 16 16 16 16 16 15
20 20 19 20 20 19 20 20 21 20 20 20 20 20 20 20 20 20 20 20 20 19 19 19 19 19 19 19 19 19 19 19 19 19 19 19 19 18 18 18 18 18 18 18 18 18 18 18 18 18 18 18 18 18 18 18 17 17 17 17 17 17 17 17 17 17 17 18 18 17 17 18 18 18 16 16 16 16 16 16 16 16 16 16 15
20 20 20 20 20 19 19 20 20 20 20 20 20 20 20 20 19 19 19 19 19 19 19 19 19 19 19 19 19 19 19 19 19 19 19 19 18 18 18 18 18 18 18 18 18 18 18 18 18 18 18 17 17 17 17 18 18 17 17 17 17 17 17 17 17 17 17 18 18 17 17 17 18 17 16 16 16 16 16 16 16 16 16 15 15
19 20 20 20 20 19 20 20 20 20 20 20 20 20 20 20 19 19 19 19 19 19 19 19 19 19 19 19 19 19 19 19 19 19 19 18 18 18 18 18 18 18 18 18 18 18 17 17 18 17 17 17 17 17 17 18 18 17 17 18 18 18 17 17 17 17 17 18 17 17 17 17 17 17 16 16 16 16 16 16 16 15 15 15 15
19 20 20 20 20 19 20 20 21 20 20 20 20 20 20 20 20 19 19 19 19 19 19 19 19 19 19 19 19 19 18 19 19 19 19 18 18 18 18 18 18 18 18 18 18 18 18 17 17 17 17 17 17 17 17 17 18 18 18 19 18 18 18 18 17 17 17 18 17 17 17 17 17 16 16 16 16 16 16 16 15 15 15 15 15
19 20 20 20 20 20 20 21 21 21 21 20 20 20 20 20 20 20 20 19 19 19 19 19 19 19 19 19 18 19 19 19 19 19 19 19 18 18 18 18 18 18 18 18 18 18 17 17 17 17 17 17 17 17 17 17 18 18 18 19 19 19 18 18 18 17 17 17 17 17 17 17 17 16 16 16 16 16 16 16 15 15 15 15 15
19 20 20 20 20 20 20 21 21 21 21 21 20 20 20 20 20 20 20 19 19 19 19 19 19 19 19 19 18 19 19 19 19 19 19 19 19 18 18 18 18 18 18 18 18 17 17 17 17 17 17 17 17 17 17 17 18 18 18 18 19 19 19 19 18 18 17 17 17 17 17 17 16 16 16 16 16 16 16 16 15 15 15 15 15
20 20 20 20 20 20 20 20 21 21 20 21 21 20 20 20 20 20 20 19 19 19 19 19 19 19 19 19 19 19 19 19 19 19 19 19 19 18 18 18 18 18 18 18 18 17 17 17 17 17 17 17 17 17 17 17 18 18 18 19 19 19 19 19 18 18 17 17 17 17 17 17 16 16 16 16 16 16 16 15 15 15 15 15 15
20 20 20 20 20 20 20 20 21 20 20 21 21 20 20 20 20 20 20 19 19 19 19 19 19 19 19 19 19 19 19 19 19 19 19 19 19 18 18 18 18 18 18 18 18 18 17 17 17 17 17 17 17 17 17 17 18 18 19 19 19 19 19 19 18 18 17 17 17 17 17 17 16 16 16 16 16 16 16 15 15 15 15 15 15
19 19 19 19 19 20 19 20 20 20 20 20 20 20 20 20 20 19 19 19 19 19 19 19 19 19 19 19 19 19 18 18 19 19 18 18 18 18 18 18 18 18 18 18 18 18 17 17 17 17 17 17 17 17 17 18 18 18 19 19 19 19 19 19 18 18 18 17 17 17 17 17 16 16 16 16 16 16 16 15 15 15 15 15 14
19 18 19 19 19 19 19 19 20 20 20 20 20 19 19 19 19 19 19 19 19 19 19 19 19 19 19 19 18 18 18 18 18 18 18 18 18 18 18 18 18 18 18 18 18 18 17 17 17 17 17 17 17 17 18 18 18 18 19 19 19 19 19 19 18 18 18 17 17 17 17 16 16 16 16 16 16 16 15 15 15 15 15 15 15
18 18 19 19 19 19 19 19 19 20 20 20 19 19 19 19 19 19 19 19 19 19 19 19 18 19 18 18 18 18 18 18 18 18 18 18 18 18 18 18 18 18 18 18 18 18 17 17 17 17 17 17 17 17 17 18 18 18 19 19 20 19 19 19 18 18 18 18 17 17 17 16 16 16 16 16 16 16 15 15 15 15 15 15 14
18 18 19 19 19 19 19 19 19 19 20 20 19 19 19 19 19 19 19 19 19 19 19 19 19 18 18 18 18 18 18 18 18 18 18 18 18 18 18 18 18 18 18 18 18 18 17 17 17 17 17 17 17 17 17 18 18 18 19 19 20 19 19 19 19 18 18 18 17 17 17 16 16 16 16 16 16 16 15 15 15 15 15 15 15
18 18 19 19 19 19 19 19 19 19 19 19 19 19 19 19 19 19 19 19 19 19 18 18 18 18 18 18 19 19 18 18 18 18 18 18 18 18 17 17 18 18 18 18 18 17 17 17 17 17 17 17 17 17 17 18 18 18 19 19 20 19 19 19 19 18 18 18 17 17 17 16 16 16 16 16 16 15 15 15 15 15 15 15 15
18 19 19 19 19 19 19 19 19 19 19 19 19 19 19 19 18 18 19 19 18 18 19 18 18 19 19 19 19 19 18 18 18 18 18 18 18 18 17 17 17 17 17 17 17 17 17 17 17 17 17 17 17 17 17 18 18 18 19 19 19 19 19 19 19 18 18 18 18 17 17 17 16 16 16 16 15 15 15 15 15 15 15 15 14
18 18 18 18 19 19 19 18 18 19 19 18 18 18 18 18 18 18 18 19 18 18 19 19 19 19 19 19 18 18 18 18 18 18 18 18 17 17 17 17 17 17 17 17 17 17 17 17 17 17 17 17 17 17 17 17 18 18 18 19 19 19 19 19 19 18 18 18 18 18 17 17 16 16 16 16 15 15 15 15 15 15 15 15 14
18 18 18 18 18 18 18 18 18 19 18 18 18 18 18 18 18 18 18 19 19 18 19 19 19 19 18 18 18 18 18 18 18 17 17 17 17 17 17 18 17 17 17 17 17 17 17 17 17 17 17 17 17 17 17 17 17 18 18 18 19 19 19 19 19 18 18 18 18 18 17 17 16 16 16 16 15 15 15 15 15 15 15 15 14
18 18 18 17 18 18 18 18 18 19 19 18 18 18 18 18 18 18 18 18 18 18 19 19 18 18 18 18 18 18 17 17 17 17 17 17 17 17 17 17 17 17 17 17 17 17 17 17 17 17 17 17 17 17 17 17 17 17 18 18 19 19 19 19 19 19 19 18 18 18 17 17 17 16 16 16 15 15 15 15 15 15 14 14 14
18 18 18 18 18 18 18 18 18 18 19 18 18 18 18 18 18 18 18 18 18 18 19 18 18 18 18 18 18 17 17 17 17 17 17 17 17 17 17 17 17 17 17 17 17 17 17 17 17 17 17 17 17 17 17 17 17 17 18 18 19 19 19 19 19 19 19 19 18 18 17 17 17 16 16 16 16 15 15 15 15 15 14 14 14
17 18 18 18 17 17 18 18 18 18 18 18 18 18 18 18 18 17 17 17 17 18 18 18 18 18 18 18 18 17 17 17 17 17 17 17 17 17 17 17 17 17 17 17 17 17 17 17 17 17 17 17 17 17 17 17 17 18 18 18 18 19 19 19 19 19 19 19 18 18 18 17 17 16 16 16 16 15 16 16 15 15 14 15 15
17 17 18 17 17 18 18 19 18 18 18 18 18 18 17 17 17 17 17 17 17 18 18 18 18 18 18 18 18 17 17 17 17 17 17 17 17 17 17 17 17 17 17 17 17 17 17 17 17 17 17 17 17 17 17 17 18 18 18 18 18 18 19 19 19 19 19 19 18 18 18 17 17 17 16 16 16 15 16 16 16 15 15 15 15
17 17 17 17 17 18 18 19 18 17 18 19 18 17 17 17 17 17 17 17 17 18 18 18 18 18 18 18 17 17 17 17 17 17 17 17 17 17 17 17 17 17 17 17 17 17 17 17 17 17 17 17 17 17 17 18 18 18 18 18 18 18 19 19 19 19 19 19 19 18 18 18 17 17 16 16 16 15 16 16 16 15 15 15 15
17 17 17 17 17 18 18 18 17 16 18 19 18 17 16 17 17 17 17 16 17 18 18 18 18 17 17 17 17 17 17 16 16 17 17 17 17 17 17 17 17 17 17 17 17 17 17 17 17 17 17 17 17 17 18 18 18 18 18 19 19 18 19 19 19 19 19 19 19 18 18 18 17 17 16 16 16 15 15 16 15 15 15 15 14
17 17 18 17 17 17 17 17 17 17 17 17 17 16 16 16 17 17 17 17 17 18 17 17 17 17 17 17 17 17 17 16 16 16 16 16 16 16 16 17 16 17 17 17 17 17 17 17 17 17 17 17 17 17 18 18 18 18 18 19 19 19 19 19 19 19 19 19 19 19 18 18 18 17 17 16 16 16 15 15 15 15 15 15 15
18 18 18 18 18 17 17 17 18 18 17 17 17 16 16 16 16 17 16 17 17 17 17 17 17 17 16 16 17 16 16 16 16 16 16 16 16 17 16 16 16 16 17 17 16 17 17 17 17 17 17 17 17 17 18 18 18 18 18 18 19 19 19 19 19 19 19 19 19 19 18 18 18 17 17 16 16 16 16 15 15 15 15 15 15
17 17 17 17 18 18 18 18 18 18 17 17 17 16 17 17 17 17 17 17 16 16 17 17 17 17 17 16 16 16 16 16 16 16 16 16 16 17 16 16 16 16 16 16 16 16 16 16 16 16 17 17 17 17 18 18 18 18 18 18 19 19 19 19 19 19 19 19 19 19 18 18 17 17 17 17 17 16 16 16 15 15 15 15 15
17 16 17 17 17 17 18 18 18 18 17 17 17 17 17 17 17 17 17 17 16 16 16 16 17 16 16 16 16 16 16 16 16 16 15 16 16 16 16 16 16 16 16 16 16 16 16 16 16 16 16 17 17 17 17 18 18 18 18 18 18 19 19 19 19 19 19 19 19 19 18 18 18 18 17 17 17 16 16 16 16 15 15 15 15
17 16 17 18 18 17 18 18 18 18 17 17 17 17 17 17 17 16 16 16 16 16 16 16 16 16 16 16 16 16 16 15 15 15 15 16 16 16 16 16 15 15 16 16 16 16 16 16 16 16 16 17 17 17 17 17 17 17 18 18 18 19 19 19 19 19 19 19 19 19 18 18 18 18 18 17 17 17 16 16 16 15 15 15 15
17 17 18 18 17 17 18 18 18 18 18 17 17 17 17 17 17 16 16 16 16 16 16 16 16 16 16 16 15 15 15 15 15 15 15 15 15 16 16 15 15 15 16 16 16 16 16 16 16 16 16 16 17 17 17 17 17 17 17 18 18 18 18 19 19 19 19 19 19 18 18 18 18 18 18 17 17 17 17 16 16 16 15 16 15
17 17 18 18 18 18 18 18 18 18 18 17 17 17 17 17 17 17 17 17 16 16 16 16 16 16 16 16 16 15 15 15 15 15 15 15 15 15 15 15 15 15 16 16 15 16 16 16 16 16 16 16 16 17 16 16 17 17 17 17 17 18 18 18 19 19 19 19 19 18 18 18 18 18 17 17 17 17 16 16 16 16 16 16 16
16 17 17 17 17 17 18 18 18 18 18 17 17 17 17 17 17 17 17 17 17 16 16 16 16 16 16 16 16 16 16 15 15 15 15 15 15 15 15 15 15 15 15 15 15 15 15 15 16 16 16 16 16 16 16 16 16 16 16 17 17 17 17 18 18 18 18 18 18 18 18 18 18 18 17 17 17 16 16 16 16 16 16 16 16
16 17 17 17 17 17 18 18 18 18 17 17 17 17 16 16 17 16 16 16 16 16 16 16 16 16 16 17 17 16 16 16 16 15 15 15 15 15 15 15 15 15 15 15 15 15 15 15 15 16 16 16 16 16 16 16 16 16 16 16 16 16 16 17 17 17 17 17 17 17 17 17 17 17 18 17 17 16 16 16 15 16 16 16 16
16 17 17 17 17 17 17 18 18 18 17 17 17 17 16 16 17 17 17 16 16 16 16 16 16 16 17 17 17 17 16 16 16 16 15 15 15 15 14 14 14 14 15 15 14 15 15 15 15 15 16 16 15 16 16 16 16 16 16 16 16 16 16 16 16 16 17 16 16 16 17 17 17 17 17 17 16 16 15 15 15 16 16 15 15
16 17 18 18 18 18 18 18 18 18 17 17 18 18 17 18 18 18 18 17 16 16 16 16 16 16 17 17 17 17 16 16 16 16 16 16 16 15 14 14 14 14 14 14 14 14 15 14 14 15 15 15 15 15 15 16 16 17 17 17 17 16 16 16 16 16 16 16 16 16 16 16 16 16 16 16 16 15 15 15 15 15 16 15 15
17 17 18 18 18 18 18 19 19 18 17 17 19 19 18 18 18 18 18 17 16 16 16 16 16 16 16 16 16 17 16 16 16 16 16 16 16 16 15 14 14 14 14 14 15 14 14 14 14 15 14 14 15 14 15 15 16 16 16 17 17 17 17 16 16 16 15 16 16 16 16 16 16 16 16 16 16 15 15 16 16 15 16 16 15
18 18 18 19 19 19 18 19 19 18 17 17 19 19 18 18 18 17 17 17 17 16 16 16 16 16 16 16 16 16 16 16 16 16 16 16 16 16 16 15 14 14 14 14 15 14 14 14 14 15 15 15 15 14 14 14 15 15 16 17 16 17 18 18 17 15 15 15 15 15 16 15 16 16 16 16 16 15 15 16 16 15 15 16 16
18 18 18 18 19 19 19 19 18 18 18 18 19 19 18 17 17 16 17 17 16 16 16 16 16 16 16 16 16 16 16 16 16 16 16 16 16 16 16 15 15 15 14 14 14 14 14 14 14 14 15 15 15 14 14 14 14 15 15 16 16 17 18 17 17 16 14 14 15 15 15 15 15 16 15 15 15 15 14 15 15 15 15 16 15
17 18 18 18 18 18 18 19 19 18 18 18 19 19 18 17 17 17 17 16 16 16 16 16 16 16 16 16 16 16 16 16 16 16 16 16 16 16 16 15 15 15 15 14 14 14 14 14 14 14 15 15 15 15 14 14 14 14 14 15 15 16 17 16 17 16 14 14 14 14 14 14 14 15 15 15 15 15 15 14 15 15 15 15 15
16 17 18 18 18 19 19 19 19 19 18 18 19 18 18 17 18 18 18 17 16 16 16 16 16 16 16 16 16 16 16 16 16 16 16 16 16 16 16 15 15 15 15 15 14 14 14 14 14 14 14 14 14 15 15 14 14 14 14 14 14 14 15 16 17 17 16 14 14 14 14 14 14 14 14 14 14 14 15 15 15 15 15 15 15
16 17 18 18 19 19 19 18 19 19 18 19 19 18 18 18 18 19 18 18 17 16 16 16 16 16 16 16 16 16 16 16 16 16 16 16 16 16 16 16 16 16 15 15 15 15 15 14 14 14 14 14 15 15 15 14 14 14 14 14 14 14 14 15 16 17 17 16 15 14 14 13 14 13 13 13 14 14 14 14 15 15 15 15 15
16 17 18 19 18 18 18 18 18 18 18 19 19 18 18 18 19 19 18 17 17 16 16 15 15 15 15 16 16 16 16 16 16 16 16 16 16 16 16 16 16 16 16 15 16 16 15 14 14 14 14 14 14 15 15 14 14 14 14 14 14 14 14 14 15 16 17 16 16 16 15 14 14 13 12 13 13 13 13 14 14 14 14 14 14
17 18 18 18 17 17 17 17 17 17 17 18 19 18 18 19 19 19 18 17 16 16 16 15 15 15 15 15 15 16 16 16 16 16 16 16 16 16 16 16 16 15 15 15 15 15 15 15 14 14 14 14 14 14 14 14 13 13 14 14 14 14 14 15 15 16 17 17 17 16 16 16 15 13 12 13 13 13 13 13 13 13 14 14 14
17 17 17 17 17 16 16 16 16 17 18 18 19 18 18 19 19 19 19 18 17 16 16 15 15 15 15 15 15 15 16 16 16 16 16 16 16 16 16 15 15 15 15 15 15 15 15 15 15 15 15 15 15 14 14 13 13 13 13 14 15 15 15 16 15 16 17 17 17 16 17 16 15 14 13 13 13 13 13 13 13 13 13 14 14
Height
788 791 792 794 795 796 797 798 799 799 800 801 802 804 806 808 810 812 813 814 815 816 817 818 819 819 820 821 821 822 823 823 825 825 826 826 827 828 829 830 831 832 832 833 834 834 835 836 836 837 837 838 838 838 837 837 838 838 838 838 838 838 838 838 838 838 837 837 838 838 837 837 837 837 837 837 836 836 836 835 835 835 835 834 834
788 791 793 794 796 797 798 799 800 801 802 802 803 804 806 808 811 813 815 816 817 818 818 819 820 820 821 822 823 823 824 825 826 826 827 828 828 829 829 830 831 832 833 834 834 835 836 836 837 838 838 839 839 839 839 839 839 839 839 839 839 839 839 839 839 839 839 838 839 839 839 838 838 838 838 838 838 837 837 837 837 837 836 836 835
787 791 793 795 796 797 798 800 801 802 804 804 805 805 807 808 811 813 815 817 818 819 820 820 821 822 822 823 824 824 825 826 827 828 828 829 829 830 831 831 832 833 833 834 835 835 836 837 838 838 839 839 840 840 839 840 839 840 840 840 840 840 840 840 840 840 839 839 839 840 840 840 840 840 840 839 839 839 839 838 838 838 837 837 836
787 790 792 795 796 797 798 800 801 802 804 805 806 806 808 809 811 814 816 818 819 820 820 821 822 823 823 824 824 825 826 827 828 829 829 830 830 831 832 832 833 834 834 835 835 836 836 837 838 838 839 840 840 840 840 840 840 841 840 840 840 841 841 841 841 840 840 840 840 841 841 841 841 841 841 841 841 840 840 840 839 839 839 838 838
787 790 792 794 795 797 798 800 801 802 804 805 807 808 809 810 812 814 816 818 819 820 821 822 823 823 824 825 826 826 827 828 829 829 830 831 831 832 832 833 833 834 835 835 836 836 837 837 838 839 840 840 841 841 841 841 841 841 841 841 841 841 841 842 841 841 841 841 841 842 842 842 842 842 842 842 842 842 841 841 841 840 840 839 839
787 791 793 794 796 797 799 800 801 803 804 805 807 808 810 811 812 814 816 818 820 821 822 823 824 824 825 826 826 827 828 829 829 830 831 831 832 832 833 833 834 835 835 836 836 837 837 838 839 839 840 840 841 841 841 842 842 842 842 842 842 842 842 843 842 842 842 842 843 843 844 844 844 844 844 843 843 843 843 842 842 842 841 841 840
788 791 793 795 797 798 800 801 802 803 804 805 807 809 810 812 813 815 817 819 820 822 823 824 825 825 826 826 827 828 829 829 830 831 832 832 832 833 833 834 834 835 836 836 837 837 838 838 839 840 841 841 841 842 842 842 843 843 843 843 843 843 843 843 843 843 843 843 844 844 845 845 845 845 845 845 844 844 844 844 843 843 843 842 842
789 791 793 796 797 799 801 802 803 804 805 806 807 809 810 812 813 815 817 819 821 822 824 824 825 826 827 827 828 829 829 830 830 831 832 833 833 833 834 834 835 836 836 837 837 837 838 839 840 841 841 842 842 842 843 843 843 843 843 843 844 844 844 844 844 844 844 845 845 845 846 846 845 846 846 846 846 845 845 845 844 844 844 843 843
790 792 794 796 797 799 801 802 803 804 806 807 808 810 811 813 813 814 817 820 821 823 824 825 826 827 827 828 829 829 830 830 831 831 832 833 834 834 834 835 835 836 837 837 837 838 838 839 840 841 842 842 843 843 843 844 844 844 844 844 844 845 845 845 845 845 846 846 846 846 846 847 846 846 847 847 847 846 846 846 846 845 845 844 844
790 792 794 795 798 799 801 803 804 806 807 808 810 811 812 813 814 814 817 819 821 823 824 825 826 827 828 828 829 830 831 831 831 832 832 833 834 834 835 835 836 837 837 838 838 838 839 839 840 841 842 842 843 843 844 844 844 844 844 844 845 845 845 846 846 846 847 847 847 847 847 847 847 847 847 847 848 847 847 847 847 846 846 845 845
790 792 794 796 798 800 802 804 805 807 808 810 811 812 813 814 815 815 816 819 821 823 825 826 826 827 828 829 830 830 831 831 832 832 833 834 835 835 836 836 837 837 838 838 839 839 840 840 841 841 842 842 843 844 844 844 845 845 845 845 845 846 846 846 847 847 848 848 848 848 848 848 848 848 848 848 848 848 848 848 847 847 847 846 846
791 792 794 797 799 801 803 804 805 807 809 811 812 813 814 815 817 816 817 819 821 823 825 826 827 828 829 830 830 831 831 832 832 832 833 834 835 836 836 837 838 838 839 839 840 840 840 841 841 842 842 843 843 844 844 845 845 845 845 845 846 846 847 847 848 848 849 849 849 849 849 849 849 849 849 849 849 849 849 849 848 848 848 847 846
791 793 795 797 799 801 802 804 805 806 809 811 813 813 815 816 817 818 818 820 821 823 825 826 827 828 830 830 831 831 832 832 833 833 834 835 835 836 837 838 838 839 839 840 840 841 841 841 842 842 843 843 844 844 845 846 845 846 846 846 847 847 847 847 848 848 849 850 849 850 850 850 850 850 850 850 850 850 850 850 849 849 849 848 847
791 794 795 798 799 801 802 804 805 806 807 810 813 813 814 816 817 818 819 821 822 823 825 826 827 829 830 831 831 832 833 833 833 834 834 835 836 837 837 838 839 839 840 840 841 841 842 842 842 843 843 844 844 845 846 846 846 846 846 846 847 847 848 848 848 849 849 850 850 850 850 851 850 850 851 851 851 851 851 851 850 850 850 849 848
792 794 796 798 800 802 803 804 806 807 807 810 813 814 814 815 817 819 820 821 822 823 825 826 828 829 830 831 832 832 833 834 834 834 835 836 837 838 838 839 839 840 840 841 841 842 842 842 843 843 843 844 844 845 846 846 846 846 846 847 847 847 848 848 849 849 849 850 850 851 851 851 851 851 851 852 852 852 852 852 851 851 851 850 849
793 795 797 798 800 802 804 805 807 808 809 810 813 815 815 815 817 819 820 821 821 823 825 827 828 829 831 832 832 833 834 834 835 835 836 837 838 839 839 840 840 840 841 841 842 842 842 843 843 843 844 844 845 845 846 846 847 847 847 847 848 848 848 849 849 849 850 850 850 851 852 852 851 851 852 852 852 852 853 852 852 852 852 851 850
793 795 796 798 800 802 804 806 808 809 810 811 813 815 816 815 817 819 821 821 821 823 825 827 829 830 831 832 833 834 835 835 836 836 837 838 839 840 840 840 841 841 842 842 843 843 843 843 843 844 844 844 845 845 846 846 847 847 847 847 848 848 849 849 850 850 850 851 851 852 852 852 852 852 852 852 852 853 853 853 853 853 852 852 852
794 795 797 798 800 802 804 806 808 810 811 812 813 815 816 817 819 820 821 822 822 823 825 827 829 830 832 833 834 835 836 836 837 837 838 839 840 840 840 841 841 842 842 843 843 843 844 844 844 844 844 845 845 846 846 847 847 847 848 848 848 848 849 849 850 850 851 851 851 852 853 852 852 852 853 853 853 853 853 853 854 854 853 853 853
795 796 798 800 801 803 805 806 808 810 811 812 814 815 816 818 819 821 822 822 822 824 826 828 829 831 832 833 834 835 836 837 837 838 839 840 840 841 841 841 841 842 843 843 844 844 845 845 845 845 845 845 846 846 847 847 847 848 848 848 848 848 849 849 850 851 851 851 852 852 852 852 852 853 853 853 853 854 854 854 854 854 854 854 853
796 797 799 801 802 804 806 807 809 810 811 812 814 815 817 819 820 821 822 823 823 825 826 828 830 832 833 834 835 836 837 837 838 838 839 840 840 841 840 841 841 842 843 844 844 845 845 846 846 846 846 846 846 847 847 847 848 848 848 848 848 849 849 850 850 851 852 852 852 853 852 852 853 853 854 854 854 854 854 854 855 855 855 854 854
797 798 800 802 804 806 807 808 809 811 812 813 815 816 818 820 821 822 823 824 824 826 827 829 831 833 834 835 836 836 837 837 838 839 839 840 840 840 840 841 842 843 843 844 845 845 846 846 846 846 846 847 847 847 847 847 847 848 848 848 848 849 850 850 851 852 852 853 853 853 853 853 853 854 854 854 854 855 855 855 855 855 855 855 855
798 799 802 803 805 807 808 809 811 812 813 814 816 817 819 820 822 823 824 825 826 827 828 830 831 833 834 835 836 837 837 838 838 839 839 840 839 840 840 841 842 843 844 845 845 846 846 846 846 847 847 847 847 847 847 847 848 848 848 848 849 849 850 851 851 852 853 853 854 854 853 853 854 854 855 855 855 855 855 856 856 856 856 856 856
798 800 802 804 806 808 809 811 812 814 815 816 817 818 819 821 822 823 825 826 827 829 829 831 832 833 834 835 836 837 837 838 838 839 839 839 839 840 840 841 841 843 844 845 845 846 846 847 847 847 848 848 848 848 848 848 848 848 849 849 849 849 850 851 852 852 853 853 854 854 854 854 854 855 855 855 855 855 856 856 856 857 856 856 856
798 801 803 805 807 808 810 812 813 815 817 818 818 819 820 821 822 823 825 827 828 830 831 831 832 834 835 835 836 837 837 838 839 839 839 840 840 840 840 841 842 842 843 844 845 846 847 847 848 848 848 849 849 849 849 849 849 849 849 849 849 849 850 851 852 852 853 853 854 854 854 854 854 855 855 855 855 856 856 857 857 857 857 857 857
799 801 803 806 807 809 810 811 813 815 818 819 819 820 821 821 822 823 825 826 828 830 832 832 832 834 835 836 837 837 837 838 838 839 839 839 840 840 840 841 842 842 843 844 845 846 847 848 848 849 849 849 849 849 850 850 850 850 850 850 850 850 850 851 851 852 853 853 853 854 854 855 855 856 856 856 856 856 857 857 857 857 857 858 857
799 802 804 806 808 809 810 811 812 813 816 819 820 821 822 822 823 823 824 827 828 830 831 831 832 834 835 836 837 837 837 837 838 838 838 839 839 839 840 840 841 842 843 844 845 846 847 847 848 849 849 849 849 850 850 850 850 850 850 850 850 850 850 851 851 852 852 853 853 854 854 855 855 856 856 856 856 856 857 857 857 858 858 858 858
800 802 804 806 808 810 812 813 813 813 816 818 821 822 822 823 824 824 825 827 829 830 831 831 833 834 835 836 836 836 837 837 837 838 838 838 838 838 839 840 841 842 842 843 844 845 846 847 848 849 849 849 849 850 850 850 850 851 851 850 851 851 851 851 851 852 852 852 853 854 854 855 855 856 856 857 857 857 857 858 858 858 858 858 859
801 803 804 805 807 810 812 814 816 816 817 817 819 822 823 824 824 825 826 827 828 829 830 831 833 834 834 835 836 836 836 836 837 837 837 837 837 837 838 839 840 841 842 843 844 845 845 846 847 848 848 849 849 849 850 850 850 850 851 851 851 851 851 851 851 851 852 852 853 854 854 855 855 856 856 857 857 857 857 858 858 858 858 859 859
801 802 804 806 807 809 809 811 815 817 817 816 819 822 824 824 825 825 826 827 828 829 830 831 832 833 834 835 835 836 836 836 836 836 837 837 836 837 838 838 839 840 840 842 843 843 844 845 846 847 848 848 848 849 849 850 850 850 850 851 851 851 851 851 851 851 852 852 853 853 854 855 855 856 856 856 857 857 857 858 858 858 858 859 859
801 803 805 808 809 809 809 811 815 817 816 816 819 823 824 824 825 825 826 828 828 829 830 831 832 833 834 835 836 836 835 836 837 837 837 836 837 837 838 838 838 838 839 840 841 842 843 844 845 846 847 847 848 848 848 849 849 849 850 850 851 851 851 851 851 851 852 852 852 853 853 854 855 855 856 856 857 857 857 858 858 858 858 859 859
802 804 807 810 810 809 810 813 817 818 816 816 819 822 824 824 825 826 826 827 828 829 830 831 832 833 834 835 835 834 835 836 837 837 837 837 837 838 838 838 838 838 839 839 840 841 842 843 844 845 846 846 847 847 848 848 848 849 849 850 850 850 851 851 851 851 851 852 852 852 853 854 854 855 856 856 857 857 857 858 858 858 859 859 859
803 804 806 808 810 810 811 814 817 818 817 817 819 821 823 824 825 826 826 827 828 829 830 831 832 832 833 834 833 833 834 835 835 835 836 837 837 838 839 839 838 838 838 839 840 841 842 842 843 844 845 845 846 847 847 847 848 848 848 849 850 850 850 850 851 851 851 851 852 852 853 853 854 854 855 856 856 856 857 857 857 858 858 859 859
802 803 804 805 807 809 811 814 816 817 817 818 819 821 822 823 824 825 826 827 827 828 829 830 830 831 832 832 832 833 833 834 834 835 835 836 836 837 838 838 838 838 838 839 840 840 841 842 843 844 844 845 846 846 847 847 847 848 848 848 849 849 850 850 850 851 851 851 851 852 852 853 854 854 855 855 855 856 856 857 857 857 858 858 859
800 802 803 804 806 808 810 813 815 815 816 818 819 820 821 822 823 825 826 826 827 828 829 829 829 830 831 831 832 832 833 833 834 834 835 836 836 836 837 838 838 838 838 838 839 839 840 841 842 844 844 845 846 846 847 847 847 848 848 848 848 849 849 850 850 850 851 851 851 852 852 853 853 854 854 854 855 855 856 856 856 857 857 858 858
799 801 803 804 806 807 809 812 814 815 816 817 819 820 821 822 823 824 825 826 827 827 828 829 829 830 831 831 831 832 832 833 833 834 835 836 837 837 837 837 837 838 838 838 839 839 840 841 842 843 844 844 845 846 847 847 847 848 848 848 848 848 849 850 850 850 851 851 851 851 852 852 853 853 854 854 854 854 855 855 856 856 857 857 857
798 801 802 804 805 807 809 811 812 814 815 817 818 819 820 822 823 824 825 826 826 827 828 828 829 830 831 831 832 832 833 833 834 835 836 836 837 838 838 837 837 837 837 838 838 839 839 840 841 842 843 844 845 846 847 847 847 847 848 848 848 848 849 849 850 850 850 850 851 851 851 852 852 853 853 854 854 854 854 855 856 856 856 857 857
798 800 801 803 804 806 808 810 811 812 814 816 818 819 821 822 823 824 825 826 826 827 828 829 830 830 831 832 832 833 833 833 834 834 835 835 836 837 837 837 837 837 837 837 838 839 839 839 840 841 843 844 845 846 847 847 848 848 848 848 848 848 848 849 849 849 849 850 850 850 851 851 852 852 852 853 854 854 854 855 855 856 856 857 857
798 799 800 802 803 805 807 808 809 811 813 815 817 819 821 822 823 824 825 826 827 827 828 829 830 830 831 831 832 832 832 833 833 834 834 834 835 835 836 836 836 837 837 837 838 838 838 839 840 841 842 843 844 844 846 847 848 848 848 848 848 848 848 848 849 849 849 849 850 850 850 851 851 851 852 852 853 854 854 855 855 855 856 856 857
798 800 801 802 804 805 806 808 809 811 813 815 817 819 821 822 824 825 826 826 827 827 828 829 830 830 830 831 831 831 832 832 833 833 833 833 834 835 835 836 836 837 837 837 837 838 839 839 840 841 841 841 841 842 844 846 847 847 848 848 848 848 848 848 848 849 849 849 849 849 850 850 850 851 851 852 852 853 854 855 855 856 856 856 856
798 800 801 802 804 805 806 808 809 812 814 815 817 819 821 823 824 825 826 826 827 828 828 829 830 830 830 831 831 831 831 832 832 833 833 833 833 834 835 836 836 836 836 837 837 838 839 839 840 840 839 840 840 842 844 845 847 847 848 848 848 848 848 848 848 848 849 849 849 849 850 850 850 850 850 851 852 852 853 854 854 855 856 856 856
798 800 801 802 803 805 806 808 809 812 814 815 816 818 820 822 824 825 825 826 827 828 829 829 830 831 831 831 831 831 832 832 832 833 833 833 833 834 835 835 836 836 836 836 837 838 839 839 840 839 840 841 842 842 844 845 846 847 847 847 848 848 848 848 848 849 849 850 850 850 850 850 850 850 850 851 851 852 853 853 853 854 855 856 856
796 798 799 801 803 805 806 807 809 811 813 814 816 818 820 822 823 824 825 826 827 828 829 830 831 832 832 832 832 832 832 832 833 833 833 833 833 833 834 835 835 836 836 836 837 838 839 839 840 840 840 842 843 843 844 845 845 846 847 847 847 847 848 848 848 849 849 849 850 850 850 850 850 850 850 850 851 851 851 851 853 853 853 854 855
794 796 798 800 802 804 806 807 808 810 812 814 815 817 819 821 823 824 824 825 827 828 829 830 831 832 833 833 833 833 833 833 833 834 834 834 834 834 834 835 836 836 836 836 837 838 839 839 840 840 841 842 843 843 844 844 845 846 846 846 846 846 847 847 847 848 849 849 849 849 850 850 849 850 850 850 851 852 851 850 852 853 852 852 854
793 795 797 800 802 803 805 806 808 809 811 812 814 816 819 822 823 824 825 826 827 828 830 831 832 833 834 834 834 834 834 834 834 834 835 835 835 835 835 835 836 836 836 837 837 838 839 840 841 841 841 842 842 843 844 844 844 845 846 846 846 846 845 845 847 848 849 849 849 849 849 849 849 849 849 850 851 852 851 850 851 852 851 850 853
792 795 797 799 801 802 804 805 807 808 810 811 813 816 819 821 823 824 825 826 827 829 830 831 833 833 834 835 835 835 835 835 835 835 835 835 835 835 835 835 836 836 836 837 837 838 839 840 841 841 841 841 842 843 843 844 844 845 845 845 846 846 845 845 847 848 849 849 849 849 849 849 849 848 848 849 849 850 851 852 851 851 851 851 854
793 795 797 798 800 802 803 804 806 807 809 811 812 815 818 821 822 822 824 825 827 829 830 831 833 834 835 835 836 836 836 836 836 836 836 836 836 836 836 836 836 836 837 837 837 838 839 840 840 841 841 841 841 842 842 843 844 845 845 845 846 847 846 846 846 847 849 850 850 850 849 849 848 848 849 849 849 850 851 852 851 851 852 853 854
794 795 795 797 798 799 800 802 804 806 808 810 812 815 818 820 821 821 822 824 826 828 830 831 833 834 835 836 836 836 836 836 836 836 837 837 837 836 836 836 837 837 837 838 838 838 839 840 840 841 841 841 841 841 842 843 844 844 845 845 846 846 846 846 845 845 848 851 851 850 850 849 848 848 849 849 850 851 851 851 851 851 852 852 853
793 794 794 794 794 796 798 801 803 805 808 810 812 814 817 819 820 820 821 823 825 827 829 831 833 834 835 836 837 837 837 837 837 837 837 837 837 837 837 837 838 838 838 838 839 839 839 839 839 840 840 840 841 841 841 842 843 843 844 845 845 846 847 846 846 845 846 849 851 851 851 851 849 849 849 850 850 851 851 851 851 851 851 851 851
792 792 791 792 794 796 798 801 803 806 808 810 812 815 817 818 819 819 820 823 825 827 829 831 832 834 835 837 838 838 838 837 837 838 838 838 838 838 838 839 839 839 839 839 839 839 839 839 839 840 840 840 840 840 841 842 842 843 844 845 846 846 847 847 847 846 845 847 849 850 851 851 851 851 850 850 851 851 850 851 851 850 850 851 851
790 790 791 792 795 796 798 801 803 806 809 810 812 814 816 817 818 818 819 822 824 827 829 831 832 834 835 837 838 838 838 838 838 838 839 839 839 839 839 839 840 840 840 840 840 840 840 840 840 840 840 840 840 840 841 841 842 842 843 844 846 846 846 847 847 847 846 846 848 849 851 851 852 853 853 852 852 852 852 852 851 851 851 851 851
789 790 791 794 796 798 800 801 803 806 809 810 812 814 816 817 818 819 819 821 824 826 828 830 832 834 835 836 838 839 839 839 839 839 839 840 840 840 840 841 841 841 841 841 841 841 841 841 841 841 841 841 841 841 841 841 841 842 843 844 845 845 845 846 846 846 846 846 847 849 851 851 852 854 854 853 853 853 853 853 853 852 852 852 852
Wind_Speed
22 22 23 23 22 25 23 24 25 25 25 25 26 26 27 27 26 26 27 28 28 29 29 28 26 25 24 24 23 22 21 20 19 18 17 18 18 18 19 18 18 18 16 15 15 14 13 12 13 12 12 12 12 13 14 15 14 15 15 14 15 15 15 14 13 13 13 15 15 14 15 15 15 16 15 14 14 14 15 15 15 15 15 13 13
23 22 23 23 23 25 23 24 24 25 26 25 26 27 28 28 28 26 26 26 27 27 26 25 24 23 23 23 22 21 21 20 18 17 16 17 18 19 20 19 19 18 16 16 15 15 14 13 12 12 12 12 13 13 13 13 14 15 15 14 14 14 15 14 13 13 13 14 15 15 15 15 15 15 14 14 14 15 15 15 14 14 15 13 14
23 22 23 23 24 25 24 23 23 25 26 26 26 26 28 28 28 27 26 25 25 25 24 23 23 23 22 22 21 21 20 19 18 18 17 18 19 19 19 19 18 18 17 16 15 15 15 14 14 12 12 12 13 12 13 12 13 15 15 14 14 13 13 13 13 13 14 15 16 15 15 15 14 14 14 14 14 14 15 15 15 15 14 14 15
23 23 23 24 24 25 25 24 24 25 26 27 26 26 26 27 27 27 27 25 25 24 23 23 22 22 21 21 21 20 20 19 19 18 18 18 19 19 19 18 18 18 17 16 15 15 15 15 14 13 13 13 12 13 13 12 13 15 14 14 14 13 13 13 12 14 15 16 16 15 14 14 14 14 14 14 14 14 14 14 15 15 15 14 15
23 23 23 24 24 25 25 25 24 25 26 26 27 27 26 26 26 26 26 25 24 23 23 23 22 22 21 21 21 20 19 19 18 17 17 18 19 19 18 17 17 17 17 16 15 15 15 14 14 14 14 13 13 13 13 12 14 14 14 14 13 12 12 12 13 14 15 17 17 15 13 13 13 13 13 14 14 14 14 14 15 15 15 14 15
23 23 23 24 23 25 26 25 25 25 26 27 27 26 26 26 25 25 26 26 25 24 24 23 23 23 22 22 20 19 19 18 18 17 16 17 17 18 17 17 17 16 16 15 15 15 14 14 14 14 14 13 13 13 13 13 14 14 14 14 13 13 13 13 14 15 16 16 15 13 12 12 13 13 12 13 13 13 13 14 14 15 15 14 15
23 23 22 22 22 24 26 26 25 25 26 27 27 27 27 26 26 26 26 26 25 25 24 23 23 22 21 20 19 19 18 18 18 17 16 17 18 17 17 17 17 16 15 15 15 14 14 14 14 14 13 13 13 13 14 13 14 14 14 13 13 14 14 14 14 14 15 14 12 12 11 11 11 12 11 12 12 12 13 13 14 14 14 14 15
22 21 20 21 21 24 25 26 26 25 26 27 27 27 27 27 26 26 26 25 24 24 23 22 21 20 20 19 18 18 18 18 17 17 16 17 18 18 17 16 17 16 16 15 15 14 14 14 14 14 13 13 13 14 14 14 13 12 12 12 13 13 12 12 12 13 14 11 10 11 11 11 11 11 11 11 11 12 13 13 14 14 14 14 14
20 20 20 20 21 24 25 26 27 26 25 26 27 27 26 26 26 25 24 23 22 22 21 20 19 19 19 18 17 17 16 17 17 16 16 17 17 17 16 16 16 15 15 15 14 14 14 14 14 14 13 12 13 13 13 12 11 11 10 9 11 11 10 10 11 12 11 9 9 10 10 10 11 11 10 10 11 11 12 12 13 14 14 13 13
20 19 19 19 21 24 25 25 27 26 25 25 25 25 25 25 24 24 23 22 21 20 20 20 19 18 18 17 16 16 15 16 17 17 17 17 17 16 15 15 14 14 14 14 14 14 15 15 14 14 13 13 14 12 10 9 9 10 9 7 7 8 8 8 10 9 8 8 9 9 9 10 10 11 10 10 11 12 13 12 12 13 13 12 13
19 20 19 19 22 24 25 24 24 26 26 24 24 24 24 23 23 23 22 21 21 20 19 19 19 18 17 16 15 15 15 15 16 17 16 16 15 15 15 14 13 14 14 13 13 14 15 14 14 14 14 13 13 12 10 9 8 8 7 6 5 5 5 7 8 7 8 8 8 8 8 10 10 11 11 11 11 11 12 11 12 13 12 11 12
19 20 20 21 22 23 24 24 23 24 24 23 23 23 23 22 22 22 21 21 20 19 19 18 18 17 16 15 14 14 14 15 15 15 14 14 14 14 14 13 12 13 14 13 13 13 14 14 12 13 12 12 12 11 9 8 8 7 6 5 4 3 3 5 6 7 8 7 7 8 8 9 10 10 11 11 11 11 10 10 11 12 12 10 12
20 20 21 22 22 23 24 24 24 24 24 23 23 24 22 22 21 20 20 20 20 19 18 18 17 17 16 15 14 14 14 14 14 14 13 14 13 13 13 12 11 12 13 13 12 13 13 13 12 12 11 11 11 10 9 7 7 7 5 5 4 3 3 4 6 7 8 7 7 8 8 8 9 10 10 10 11 10 10 10 11 11 11 10 12
20 20 21 22 22 23 23 25 25 25 25 23 22 23 22 21 20 19 19 19 20 19 18 18 17 16 16 15 15 14 14 14 13 13 12 13 12 12 12 11 10 12 13 11 11 12 11 12 12 11 11 11 10 9 8 7 6 5 4 5 5 4 4 5 6 7 7 7 7 7 7 8 9 10 10 10 10 10 10 10 10 10 11 10 10
21 21 22 21 22 22 23 24 24 24 25 23 21 21 21 20 18 17 18 19 20 19 18 17 17 16 15 14 14 14 13 13 12 12 11 11 11 11 11 10 10 12 12 11 10 10 10 11 11 11 10 10 10 8 7 5 5 4 3 3 4 4 5 6 7 7 7 7 7 7 7 7 9 10 9 9 9 9 10 9 9 9 9 10 10
22 22 21 21 21 21 22 23 24 23 23 23 21 19 19 18 17 17 17 19 19 19 18 17 16 15 15 14 13 13 13 12 12 11 11 11 10 10 10 10 10 10 11 10 9 9 9 9 10 10 9 9 9 8 7 6 6 5 2 2 3 5 6 7 7 7 7 7 7 7 7 7 9 10 9 9 9 9 8 7 8 8 8 9 9
22 22 21 21 21 21 21 22 23 22 22 21 20 19 17 17 16 16 17 18 19 18 17 16 15 15 14 13 13 12 12 11 11 11 11 10 10 10 10 10 9 8 9 9 8 8 9 9 9 9 8 9 9 9 8 8 7 6 3 2 3 6 7 7 7 7 6 7 7 7 7 7 9 10 9 9 9 10 8 7 8 8 8 8 8
20 20 21 21 21 21 21 21 23 23 22 21 19 18 17 16 15 15 17 18 18 18 17 16 15 14 13 13 12 11 11 10 10 10 10 9 9 9 10 10 9 8 9 9 8 9 10 10 10 9 9 9 9 9 9 8 8 7 5 3 4 7 8 7 6 6 6 6 6 7 7 8 10 9 9 9 9 9 8 8 8 8 8 7 8
18 19 19 20 19 19 20 20 21 22 23 21 18 17 16 15 15 16 17 17 18 17 16 15 14 14 13 13 11 10 10 9 9 9 9 8 8 8 9 10 9 8 9 9 9 9 11 11 11 10 9 9 9 9 8 8 8 8 6 4 5 8 8 7 6 5 5 5 6 6 7 9 9 7 8 9 9 9 9 9 7 7 7 6 6
17 18 18 19 18 17 19 19 19 20 22 21 18 16 15 14 15 17 17 17 16 15 15 15 14 14 13 12 11 10 8 8 8 9 8 8 8 8 9 10 9 8 9 9 9 10 11 11 10 10 9 9 9 9 9 8 8 7 6 5 6 8 10 8 6 5 4 4 5 6 6 9 9 7 7 8 9 8 9 8 7 7 7 6 6
15 16 17 18 17 17 18 17 18 20 21 19 16 15 14 14 15 16 16 16 15 14 14 14 14 13 11 11 9 8 7 7 8 8 8 8 8 8 8 8 8 8 8 9 9 9 10 9 8 8 9 9 8 8 8 8 8 8 7 6 6 9 11 9 6 4 4 3 4 4 5 8 8 6 6 8 8 8 8 7 7 7 6 6 5
14 15 17 17 17 17 17 16 17 18 18 17 15 15 15 15 15 15 15 14 13 13 14 14 13 12 11 10 9 8 7 7 7 8 9 8 8 8 8 8 8 7 7 8 8 8 9 8 7 7 8 8 7 7 7 7 8 8 8 7 6 10 11 9 6 4 3 2 3 3 4 7 7 6 6 6 6 7 8 7 7 7 6 5 4
14 15 17 16 15 16 15 15 15 15 16 15 14 15 15 15 14 14 13 12 12 12 12 12 12 11 10 10 9 8 8 8 7 8 8 8 7 7 8 8 8 8 7 7 7 7 7 7 6 7 7 7 6 5 6 6 7 8 9 8 8 10 11 9 7 5 3 2 2 2 3 6 6 6 5 5 4 6 8 7 6 7 6 4 3
15 15 16 14 14 14 13 13 13 15 14 13 13 13 13 14 13 13 13 12 11 11 11 11 11 10 9 9 9 8 8 8 7 8 8 8 6 6 6 7 8 7 7 7 6 6 6 6 5 5 5 5 4 4 4 4 6 8 9 8 8 9 10 10 8 6 4 3 2 2 2 4 7 6 5 5 5 6 7 6 6 6 6 4 3
16 16 15 13 12 13 13 12 13 15 13 11 13 12 12 13 14 14 13 13 12 11 11 10 10 9 8 8 8 8 8 8 7 8 8 7 6 6 6 7 8 8 7 7 6 6 5 5 4 4 3 3 2 2 3 3 4 6 8 8 8 7 8 10 9 7 5 4 4 3 2 3 6 6 5 6 5 5 7 6 5 5 6 5 3
16 16 15 13 13 13 13 14 16 17 15 13 13 11 12 13 14 15 14 13 12 12 11 10 9 8 8 7 7 7 7 7 7 8 8 7 6 6 7 7 8 8 7 6 5 5 4 4 3 3 2 2 1 2 3 3 4 5 7 8 7 7 7 8 10 9 6 5 5 4 3 2 4 6 5 5 5 5 6 6 5 5 5 5 4
15 16 15 14 13 12 11 12 14 17 17 14 13 10 10 13 13 14 13 12 12 12 12 10 9 8 7 7 6 6 5 5 6 7 7 7 6 7 8 7 8 8 7 6 5 5 4 4 3 2 1 1 1 1 2 3 3 4 6 7 8 7 7 8 9 9 8 7 6 5 4 3 3 5 5 5 4 4 6 6 5 5 4 4 4
15 16 15 14 14 12 11 10 10 15 16 14 13 11 10 13 12 11 11 10 10 11 11 10 9 8 7 6 5 5 5 4 5 6 7 7 7 7 8 8 8 8 8 7 6 5 5 4 3 2 1 1 1 1 2 2 3 4 5 6 7 7 7 8 9 9 8 7 6 5 5 4 2 4 5 5 5 4 6 5 5 5 5 4 5
16 16 14 15 15 14 15 15 13 14 14 12 12 12 12 13 11 10 10 9 9 10 10 9 8 7 6 6 6 5 5 5 5 5 5 6 6 7 8 9 8 8 8 7 6 5 5 4 3 2 1 1 0 2 2 1 1 3 5 6 6 6 6 7 7 7 8 7 6 6 5 5 3 4 5 5 5 4 5 5 5 5 5 5 5
15 15 14 15 15 14 15 16 15 12 12 13 13 14 12 12 10 10 9 8 8 10 9 8 7 7 7 6 6 6 6 5 4 4 5 5 5 5 7 9 9 8 8 7 6 6 6 6 4 3 3 2 2 3 3 1 1 3 5 6 6 5 6 8 7 7 7 7 7 7 6 5 4 3 4 4 5 5 5 5 6 5 5 5 5
14 14 13 14 14 14 13 12 12 11 12 14 14 13 10 10 10 9 9 7 7 9 9 8 7 6 6 7 7 9 7 5 4 5 5 5 4 4 6 8 8 8 7 6 6 6 6 6 5 4 4 4 4 5 3 1 1 3 6 7 6 5 5 7 8 7 7 8 8 7 6 6 5 4 4 4 4 5 5 5 5 6 6 6 6
13 16 17 17 15 13 12 12 13 13 12 13 13 11 9 9 9 9 8 7 7 7 8 8 7 7 7 8 8 9 7 5 5 6 6 5 4 4 6 6 6 7 7 6 6 6 6 6 6 5 5 5 5 5 3 2 2 3 6 7 7 5 4 6 8 8 8 7 8 7 6 6 5 5 4 3 3 4 5 4 4 5 6 6 6
17 19 21 20 17 15 14 15 16 15 12 11 10 9 9 9 9 8 7 6 6 6 6 6 7 8 7 7 8 7 7 6 7 7 6 5 5 5 6 7 7 7 6 6 6 6 5 5 5 4 4 5 5 5 3 2 3 3 4 5 6 5 4 4 5 6 6 6 6 6 6 6 6 5 4 4 4 4 5 5 4 5 5 6 6
21 17 16 16 16 15 15 15 14 14 12 11 10 8 8 9 8 8 7 6 5 4 3 4 5 5 5 6 7 6 6 7 8 8 6 6 6 6 7 8 8 8 7 6 5 5 4 3 4 3 4 5 5 4 3 1 2 2 2 3 4 4 4 3 3 4 5 5 5 5 6 6 6 5 5 5 4 4 5 6 5 4 4 4 5
19 13 14 15 15 14 13 13 12 12 11 10 10 8 8 9 8 7 7 6 4 3 2 2 2 2 2 2 3 3 4 4 6 8 7 6 7 7 8 7 7 7 7 6 5 5 4 3 3 4 5 5 4 4 3 1 1 1 1 1 2 3 3 4 4 5 5 5 5 5 6 6 5 5 5 5 5 4 5 6 6 6 4 3 4
18 15 16 17 16 15 13 13 12 11 11 11 10 8 8 8 7 7 6 5 5 4 2 1 1 3 2 2 2 1 3 2 3 6 6 6 6 7 8 6 5 6 6 7 6 4 4 5 5 5 5 5 4 3 3 2 1 1 1 1 2 3 3 4 5 6 7 7 7 7 7 6 6 6 5 5 5 5 5 5 6 7 6 4 3
20 18 20 21 19 18 15 13 13 13 12 11 10 8 8 8 7 6 5 5 5 4 4 4 4 3 2 2 1 1 1 1 1 3 3 4 5 5 6 5 4 5 6 7 5 5 5 7 8 7 5 4 3 2 1 2 2 2 2 2 3 3 5 5 6 7 7 8 9 9 8 8 8 7 6 6 6 6 5 5 5 7 7 5 4
19 20 21 20 18 20 18 14 15 14 12 12 10 8 8 8 7 6 5 6 5 5 6 6 5 3 2 2 1 1 0 1 1 2 1 3 4 4 4 2 3 5 5 5 4 5 6 7 7 7 6 6 5 3 2 2 2 2 2 3 4 5 6 6 7 7 7 7 8 10 10 9 9 9 9 8 8 7 6 5 5 6 6 6 4
18 20 20 17 16 19 17 15 15 14 12 12 10 10 9 8 7 6 6 6 7 7 7 6 6 5 4 3 2 1 1 1 1 1 1 2 3 3 2 2 3 4 4 3 3 4 4 5 6 7 10 9 8 6 4 5 5 4 4 4 4 4 4 4 5 5 6 6 7 8 9 9 10 11 11 10 9 8 7 6 5 5 6 7 6
19 20 21 19 18 18 15 14 15 14 13 13 12 12 10 8 8 8 7 7 8 9 9 8 8 6 6 5 4 3 2 2 2 1 1 1 1 1 0 1 2 2 3 2 2 2 2 4 6 8 11 10 8 7 7 7 7 5 5 5 5 4 3 3 2 1 2 3 3 3 3 5 7 9 10 10 8 6 5 5 4 4 5 7 8
18 18 19 19 19 18 14 14 15 15 15 15 15 12 10 9 10 10 10 10 10 11 11 10 9 8 7 6 6 5 5 5 5 4 3 1 0 0 1 1 1 2 2 2 2 2 2 4 6 8 10 9 8 9 9 8 7 5 5 4 5 5 4 4 3 2 2 1 1 1 1 0 1 2 4 4 4 2 3 5 6 5 4 5 7
16 17 17 17 19 17 14 15 16 16 17 16 14 11 11 12 13 13 13 13 12 12 12 11 10 9 7 6 6 6 5 6 6 6 5 3 2 2 2 2 2 2 1 2 2 2 2 3 6 7 8 8 8 8 9 8 5 5 4 3 5 5 4 4 5 5 4 3 1 0 1 1 0 2 3 3 3 2 2 4 8 9 8 6 6
15 16 16 15 16 17 17 17 17 17 16 15 13 12 13 12 12 13 14 14 13 12 11 11 11 10 8 7 6 6 6 5 6 6 6 5 4 4 3 2 2 2 1 1 2 3 3 4 6 7 6 5 6 6 7 6 4 3 3 3 3 3 4 5 5 4 4 5 4 3 2 3 5 5 4 4 4 4 4 5 7 9 9 7 8
16 16 16 16 15 17 19 18 18 18 17 15 13 13 13 12 12 14 13 12 13 11 10 10 10 8 7 5 4 5 6 5 5 6 6 5 4 4 4 3 2 2 2 1 1 3 4 4 6 6 6 5 5 5 5 5 4 3 3 1 1 2 3 3 3 1 1 2 2 3 3 3 6 7 5 5 4 5 5 4 5 6 5 5 7
17 17 18 17 17 18 20 19 19 19 18 17 15 14 15 15 16 16 14 13 13 11 10 10 8 6 5 4 3 4 5 5 5 5 4 4 3 3 4 4 2 2 2 1 1 2 3 4 4 5 5 4 4 5 5 5 5 5 4 1 1 2 1 1 2 1 4 3 2 3 2 3 4 5 5 5 5 5 4 4 3 3 4 3 6
13 16 17 17 17 19 20 20 20 19 19 18 16 16 16 17 18 17 14 13 12 10 10 10 8 7 6 6 6 6 5 4 4 4 4 4 3 3 4 4 2 2 2 2 1 2 2 3 2 4 4 4 4 4 4 4 4 4 5 2 0 1 0 2 2 2 6 8 7 5 3 2 2 3 3 2 2 3 3 4 3 2 3 4 5
9 14 16 18 19 21 22 22 21 20 20 18 17 16 17 18 16 13 12 12 12 11 10 10 10 9 9 9 8 7 6 5 5 5 4 4 4 4 5 4 4 4 4 4 4 3 3 3 3 3 4 3 4 4 4 4 4 4 4 3 1 1 1 2 1 2 3 6 9 10 9 5 1 1 2 1 1 2 3 4 3 1 2 3 5
12 15 18 20 22 23 23 23 22 22 21 19 17 17 17 17 14 12 12 11 11 12 11 11 11 11 11 11 9 8 7 6 5 5 5 5 5 5 5 5 5 6 7 6 6 6 4 3 3 3 3 3 4 4 3 4 4 5 5 3 1 2 3 3 2 2 3 4 5 8 11 13 12 9 5 2 0 0 2 3 3 3 3 4 5
15 18 20 21 21 22 22 22 21 21 21 19 18 18 17 15 13 12 13 12 11 12 12 12 12 12 11 10 9 8 7 6 5 5 5 6 6 6 5 4 4 5 6 6 6 6 5 4 4 4 4 4 4 4 4 3 3 5 6 4 4 6 6 5 4 4 4 4 4 4 6 11 15 16 14 11 7 6 4 3 5 6 5 5 5
17 18 19 19 18 19 20 21 21 21 21 19 18 17 16 14 13 12 13 13 13 13 14 13 12 11 10 9 8 7 7 6 6 6 6 6 5 4 3 2 2 3 4 5 5 6 6 7 7 6 6 5 4 4 5 5 4 4 6 7 6 7 5 4 4 5 4 4 5 6 6 8 11 13 15 16 14 13 12 10 10 10 10 8 6
17 17 16 15 14 16 18 19 19 20 20 19 18 17 15 14 12 10 11 12 13 14 15 15 13 11 10 10 8 8 7 7 7 7 6 5 4 3 2 2 2 2 3 3 4 5 8 10 11 10 9 8 7 7 7 7 7 7 7 7 6 5 5 5 5 5 5 6 7 7 8 10 11 11 13 15 16 16 16 16 16 16 16 15 12
Wind_Direction
159 157 158 160 156 153 149 144 139 137 139 138 138 138 138 134 135 140 142 141 138 138 138 138 138 139 138 136 134 132 131 129 129 128 124 119 117 116 116 119 122 122 119 117 115 116 115 113 110 110 109 107 109 110 110 110 111 110 109 111 109 107 105 105 105 105 103 103 103 102 99 95 94 95 96 95 93 94 90 82 79 73 71 67 64
155 156 157 160 154 151 148 144 139 137 139 139 139 138 139 137 136 137 139 140 137 137 137 138 138 137 135 134 133 131 131 128 127 125 122 119 118 117 116 117 119 120 120 120 119 120 117 118 115 114 115 111 111 110 111 113 114 112 109 113 110 105 106 106 105 102 99 103 105 103 100 97 95 94 93 92 92 90 84 79 79 74 70 65 61
150 155 155 160 155 151 148 143 138 137 139 139 139 138 139 139 140 139 139 140 139 138 137 138 137 136 135 135 133 131 130 128 126 122 118 117 117 115 115 116 117 120 121 121 121 121 120 122 122 120 118 115 115 115 116 115 119 119 113 114 113 107 108 109 107 105 105 105 105 102 98 96 94 93 92 90 90 87 83 81 80 76 73 69 67
148 153 155 161 156 153 149 144 140 138 139 139 141 140 139 140 141 141 142 142 142 141 140 140 139 138 137 135 132 130 130 128 125 121 116 114 118 120 119 119 119 120 120 120 120 121 121 124 125 124 121 120 121 119 119 116 121 123 115 113 111 107 109 112 109 111 114 112 107 102 98 96 94 94 94 92 90 86 84 82 80 78 75 72 69
147 150 153 158 156 155 151 147 143 139 140 140 140 140 140 140 141 142 144 144 143 142 141 142 140 139 137 134 132 130 130 128 127 123 119 115 118 122 122 120 119 118 117 119 120 122 123 124 126 126 125 125 125 124 122 119 122 120 113 111 109 107 110 112 114 116 116 112 106 100 99 98 96 94 93 94 91 87 84 81 79 76 74 71 68
146 149 152 154 155 156 152 148 145 142 141 140 139 138 138 139 140 141 142 143 143 142 141 141 139 138 136 134 133 131 130 130 129 128 125 120 118 119 119 118 119 118 117 118 120 122 122 125 126 127 127 128 131 130 127 123 123 118 112 108 105 108 112 113 116 117 115 110 101 97 98 98 98 96 94 95 94 90 87 83 79 76 75 72 69
144 149 152 152 153 156 154 150 147 145 142 141 140 138 138 138 139 139 141 142 142 142 140 138 137 137 135 134 133 133 133 133 133 131 129 125 122 121 119 117 121 121 119 119 120 121 123 125 126 128 130 131 135 134 129 128 123 113 106 103 103 105 111 115 114 115 114 105 93 95 96 97 100 99 98 96 95 93 88 85 82 76 75 73 71
145 148 149 150 153 157 156 152 149 147 144 142 139 139 140 140 140 140 142 142 141 140 139 137 136 136 135 134 134 135 135 134 134 132 129 127 126 123 120 118 118 121 122 122 122 123 125 128 128 131 133 132 137 136 132 131 124 113 106 103 99 97 105 113 115 114 109 98 91 94 94 97 98 99 101 98 97 95 89 86 82 77 74 72 73
145 148 148 147 154 159 156 153 150 146 144 142 140 140 140 140 141 140 142 142 140 140 140 138 138 138 136 135 135 135 133 133 133 133 131 129 127 124 123 120 118 122 123 123 125 125 129 132 131 133 135 135 139 140 138 137 132 127 124 112 101 98 101 110 115 112 101 93 92 93 97 99 95 98 103 100 101 98 93 87 83 79 76 74 74
145 147 147 146 154 159 155 151 148 146 144 141 140 141 141 142 141 140 141 141 141 142 142 141 141 141 139 138 137 136 135 134 135 134 133 130 128 126 126 125 123 122 120 121 124 124 129 134 135 137 138 140 142 144 147 151 144 139 139 129 115 109 106 110 113 110 99 93 92 96 103 100 95 101 105 102 98 93 93 93 90 83 80 79 72
144 145 144 146 155 158 154 149 145 144 144 142 141 142 142 143 141 140 140 141 142 144 146 145 145 144 144 143 141 140 138 137 137 135 133 130 129 130 131 132 126 121 120 118 120 123 128 136 140 141 141 144 146 147 152 161 155 145 144 140 133 123 118 113 110 112 107 97 94 100 101 96 95 103 108 105 98 94 96 95 92 87 84 81 74
143 143 143 147 154 156 152 149 145 142 143 144 144 143 143 143 141 139 141 143 144 146 148 149 148 148 148 147 145 143 140 139 138 136 135 134 135 136 137 136 127 122 123 120 121 125 131 137 141 142 142 146 150 152 158 163 153 143 142 138 139 137 143 125 118 125 114 101 98 102 100 96 99 106 109 107 104 101 101 96 93 92 90 82 79
142 143 145 149 153 153 153 153 150 147 146 148 148 145 143 142 141 139 141 145 146 148 150 150 151 151 150 149 146 143 141 140 139 139 141 143 141 139 141 138 129 123 122 121 125 129 133 136 138 143 146 151 158 162 165 161 145 142 140 131 133 143 163 147 135 135 123 110 103 106 104 100 107 113 110 109 108 105 101 99 98 97 94 86 82
142 145 147 150 153 153 156 158 155 153 152 152 150 147 145 142 140 140 142 146 148 149 150 151 151 151 151 150 147 144 143 143 143 144 145 147 143 140 142 140 134 127 124 120 124 129 134 137 138 145 154 164 171 170 170 163 148 142 131 119 126 146 163 155 143 140 133 118 110 112 106 105 117 117 111 109 110 107 104 101 100 98 96 92 84
143 147 149 151 153 155 157 159 159 157 154 153 153 152 148 144 142 142 145 149 149 149 150 151 151 151 152 151 148 146 146 146 146 145 144 145 143 141 141 140 140 135 128 121 124 131 137 144 147 152 156 162 167 167 162 156 144 135 121 112 128 152 163 154 146 144 139 128 121 118 109 112 121 121 119 115 114 111 108 107 103 99 99 96 88
145 148 149 151 154 156 157 160 162 159 155 154 155 156 152 147 145 145 149 153 152 151 151 151 152 152 152 152 149 149 146 145 144 140 138 140 141 140 139 139 142 140 128 121 125 133 140 150 158 162 163 161 159 156 152 144 134 130 131 117 131 155 160 154 147 144 142 135 130 121 112 115 119 122 125 122 122 117 116 117 106 99 98 97 93
148 150 151 153 156 158 157 160 164 161 157 157 158 159 154 149 147 149 153 154 151 149 150 152 153 152 153 152 149 147 144 143 139 134 134 135 138 139 141 138 137 135 125 122 127 130 135 142 150 157 162 161 155 150 148 143 134 129 132 133 146 160 160 154 146 144 143 138 133 123 116 123 124 124 129 127 125 121 120 117 107 104 98 94 94
151 153 154 154 157 159 158 159 164 164 162 161 160 158 152 149 149 152 154 152 148 147 149 152 153 153 153 150 145 142 139 137 133 131 131 131 130 132 139 138 135 131 125 125 128 129 129 128 130 137 146 150 150 150 147 143 135 127 131 147 161 169 167 157 148 146 144 137 133 125 124 134 134 130 134 132 126 125 122 116 113 110 103 98 97
153 154 155 155 157 159 159 160 163 165 163 161 157 155 154 153 152 153 153 149 146 147 149 151 154 155 152 147 142 137 134 132 129 128 128 128 120 117 128 135 138 137 130 129 130 133 130 123 119 124 132 136 140 143 143 140 132 125 131 158 174 175 174 168 159 152 144 141 136 131 131 132 133 133 135 133 129 129 127 125 123 116 110 104 97
152 155 155 155 157 158 160 161 163 165 164 162 156 156 158 156 155 154 152 148 147 148 149 151 153 152 149 146 141 136 133 130 130 128 126 126 122 121 128 134 141 142 135 131 134 139 136 127 119 120 125 128 134 137 139 138 133 125 131 163 182 177 179 179 172 158 147 146 137 138 136 128 131 137 135 135 134 135 133 131 129 122 116 108 103
153 156 156 156 158 158 160 160 161 163 164 162 157 156 159 159 159 155 152 149 149 150 149 152 152 151 150 148 144 141 141 137 134 133 129 128 130 134 134 134 137 142 140 135 137 145 145 139 126 124 126 126 131 136 138 137 136 130 131 156 177 176 180 181 175 165 154 149 140 145 138 129 134 141 141 141 140 142 139 132 129 127 124 116 115
153 156 156 156 158 160 160 159 159 160 160 160 158 159 160 161 159 155 152 151 150 149 151 153 154 156 159 157 156 155 152 145 142 141 137 136 144 146 142 140 142 144 145 141 141 148 152 149 140 135 133 130 131 136 140 136 136 134 133 143 156 169 176 177 176 172 164 159 157 157 140 130 135 144 148 152 150 149 143 133 132 133 130 123 119
154 157 156 156 159 159 158 157 156 153 155 159 161 162 160 159 158 153 151 152 152 154 157 160 163 167 169 167 167 166 158 147 143 143 143 146 154 156 151 153 153 149 150 152 148 149 152 152 151 146 140 135 131 130 138 136 135 134 134 136 146 163 172 175 179 181 181 181 185 182 146 133 136 151 156 157 155 147 143 136 138 140 136 131 125
155 156 154 154 156 155 152 151 146 148 157 163 162 159 159 159 156 153 153 156 159 165 171 170 171 175 178 176 169 166 158 146 142 145 147 152 159 159 161 167 164 158 158 160 158 152 148 150 157 157 150 141 130 121 126 132 135 136 136 136 144 162 173 178 183 191 194 198 222 230 172 144 141 156 165 160 156 144 146 145 146 150 144 142 141
153 153 150 149 153 151 146 143 142 152 163 167 164 163 166 163 158 158 161 165 167 173 181 175 171 176 179 177 168 167 162 151 152 154 150 154 163 164 173 181 174 172 169 165 169 163 152 154 161 169 171 158 140 125 124 127 126 134 140 139 142 155 174 184 186 190 196 207 235 247 211 170 148 156 173 168 164 153 152 155 154 156 151 149 154
151 149 147 151 156 153 151 153 154 157 165 172 175 176 176 173 167 167 169 172 175 178 185 179 174 180 179 180 177 173 168 159 158 159 156 157 168 172 177 183 178 179 175 169 178 173 163 165 168 185 201 202 198 150 144 143 127 129 142 145 144 146 162 181 186 185 189 205 232 247 232 207 160 156 174 176 172 164 158 160 161 158 154 151 155
148 148 152 157 153 148 153 157 156 158 164 172 179 184 182 182 177 175 175 177 182 185 188 186 184 188 183 186 189 183 179 172 162 160 161 161 173 181 179 178 179 179 175 173 178 174 171 172 180 200 235 249 242 188 163 156 146 137 143 149 150 153 155 167 178 181 185 201 224 244 243 235 182 155 172 183 179 172 164 162 165 164 158 158 163
143 149 160 156 145 145 151 151 157 167 169 166 176 192 193 187 182 179 183 183 185 189 191 190 189 190 185 188 195 196 195 189 178 169 164 164 177 183 178 177 180 180 178 175 175 175 175 177 189 205 240 268 267 195 178 162 162 154 153 156 155 161 167 168 176 181 187 198 216 240 246 243 211 161 172 185 185 177 171 173 175 174 168 166 168
147 155 161 152 149 158 160 163 175 179 171 163 178 201 202 190 184 184 188 187 189 193 195 195 193 192 191 195 200 209 212 207 200 189 176 179 188 185 180 180 180 182 182 178 177 179 180 185 190 190 203 216 216 188 175 164 182 174 172 170 165 166 171 176 179 181 189 195 208 231 240 243 232 181 172 177 185 179 175 183 185 183 178 170 168
155 157 156 156 163 170 166 170 182 183 172 171 188 206 204 189 187 193 193 192 196 195 195 199 199 199 200 200 208 218 221 217 212 211 200 202 205 194 188 185 183 183 180 182 184 181 181 184 183 185 195 199 199 191 176 155 185 190 187 182 182 176 167 174 178 182 192 196 206 223 234 244 241 209 184 172 180 185 181 188 192 192 186 181 183
154 155 161 171 183 179 172 174 183 190 184 185 195 204 201 187 192 199 196 198 201 194 195 201 204 208 206 205 217 224 224 223 223 226 218 217 217 202 194 190 186 182 180 187 187 182 183 185 186 188 189 187 191 191 180 134 109 181 189 190 193 186 169 174 179 183 195 206 210 217 230 243 246 229 209 185 176 181 184 189 194 193 192 196 200
149 168 181 188 195 187 178 180 190 199 195 191 195 200 195 188 193 197 198 205 203 195 196 203 208 212 208 209 226 234 236 232 225 223 214 213 221 211 199 193 188 183 181 185 183 183 187 189 188 183 180 180 185 192 184 113 92 149 178 189 197 196 184 177 181 187 198 215 219 215 224 240 250 241 225 208 184 175 179 190 195 190 196 206 208
169 183 188 188 197 197 190 189 198 204 198 195 196 196 193 190 194 197 199 201 199 195 197 209 218 221 217 228 245 246 247 243 233 229 215 201 205 215 211 200 197 193 187 186 188 190 191 197 196 188 182 177 181 191 181 104 85 106 153 178 192 199 201 187 187 196 203 217 224 220 223 234 247 248 240 227 206 184 181 185 191 191 196 205 208
181 187 186 185 195 200 200 198 201 205 202 201 199 195 194 195 198 197 194 195 196 191 194 225 244 252 249 254 257 249 253 250 236 231 223 203 197 215 224 212 206 205 199 194 195 196 194 203 203 201 196 182 182 189 180 138 113 100 118 153 185 196 200 205 212 219 219 218 218 221 227 233 238 240 242 237 223 205 195 193 193 199 199 193 197
179 181 181 186 194 194 198 199 200 204 206 205 198 194 194 196 196 190 191 190 182 169 173 244 275 315 306 292 289 273 275 270 237 225 223 214 200 214 229 225 218 211 203 197 196 199 194 193 199 203 199 188 182 185 184 180 171 158 134 140 191 204 203 212 221 228 234 229 220 222 226 233 241 245 244 239 233 219 207 202 199 206 214 194 189
182 179 180 187 194 195 193 191 194 198 202 203 198 195 193 195 192 184 182 162 146 148 147 149 70 33 38 25 2 274 273 296 259 231 222 223 215 220 231 231 219 203 198 200 201 198 191 195 202 198 192 190 186 185 197 207 203 200 195 192 200 215 219 221 224 226 232 230 226 226 227 232 243 252 251 243 241 233 220 212 205 211 218 212 197
184 183 183 187 192 195 193 187 191 194 197 203 200 195 191 192 185 167 151 131 125 118 103 102 90 71 66 49 52 140 223 22 305 264 238 235 232 232 238 230 210 202 200 204 206 201 204 206 204 197 188 186 186 183 205 204 196 196 199 204 198 210 221 224 230 233 235 234 231 231 231 234 239 248 255 254 250 245 238 227 215 217 223 220 204
185 189 186 188 191 192 191 186 190 191 194 199 195 191 190 186 171 148 134 125 115 104 97 100 106 106 102 93 88 82 49 75 346 302 274 252 250 249 252 230 208 212 208 209 213 210 213 209 199 192 178 174 189 194 211 213 186 173 183 189 190 202 216 220 226 234 239 239 236 238 240 240 245 251 254 257 257 254 252 249 237 231 236 236 223
185 194 192 191 192 191 187 182 186 186 191 194 187 188 187 177 160 143 136 128 117 112 110 111 113 112 112 105 87 60 13 46 22 293 244 255 262 264 264 223 210 211 206 213 221 211 209 202 188 180 178 185 200 195 187 202 191 181 189 189 182 181 199 211 218 229 238 242 241 243 249 250 253 257 259 261 263 262 256 255 252 242 248 254 249
189 195 197 194 193 193 184 177 181 184 190 189 184 184 177 166 160 151 143 134 126 120 116 117 114 110 104 89 77 72 59 75 98 102 109 249 254 246 179 180 199 201 206 221 223 218 210 192 174 177 186 190 196 188 180 188 185 183 194 201 199 186 176 177 176 205 229 243 242 237 250 256 259 263 265 265 263 268 273 266 261 258 267 270 266
195 195 198 196 193 193 183 175 181 188 193 187 182 180 169 164 165 160 151 137 130 124 120 117 113 110 101 88 83 80 73 83 95 97 98 80 325 82 109 119 136 154 198 212 198 203 197 179 168 181 194 186 181 187 184 180 177 184 195 206 216 215 204 193 190 189 182 168 116 116 128 164 246 278 284 284 278 280 289 266 254 253 266 282 283
196 199 201 200 196 192 188 186 187 192 196 189 182 180 176 173 168 160 150 137 130 126 123 119 115 112 106 97 93 86 84 87 92 97 96 83 54 42 62 91 108 121 180 206 174 167 156 158 163 183 198 188 185 192 185 182 188 196 198 210 218 221 219 217 218 215 209 213 215 266 352 26 1 4 0 329 320 313 305 284 268 257 245 259 289
196 201 200 201 197 195 197 198 195 196 198 191 183 184 182 179 167 154 145 135 130 126 121 118 115 113 105 99 95 91 88 89 94 93 86 76 58 36 36 65 102 125 175 205 142 141 141 149 164 184 202 194 190 197 188 187 197 189 195 220 225 224 217 215 219 221 227 231 243 261 286 308 287 301 323 305 317 341 341 319 294 277 255 255 283
192 194 196 197 196 196 199 201 200 198 198 190 183 187 184 175 159 146 139 132 129 126 120 116 115 112 104 96 93 94 92 92 95 88 76 63 49 30 23 35 69 117 152 158 116 128 137 147 163 186 212 210 192 197 196 194 195 188 202 219 209 237 225 202 198 180 317 254 268 281 276 300 287 287 298 295 311 341 354 343 310 304 287 270 278
189 188 192 194 193 196 198 200 200 199 197 188 185 190 181 165 150 139 133 127 126 128 125 122 122 116 107 99 99 105 100 93 86 82 72 47 30 15 8 22 55 97 127 130 125 131 134 147 166 183 204 213 198 193 196 201 208 209 219 218 201 245 242 134 181 127 45 21 355 323 303 307 290 283 288 295 309 325 341 332 305 327 338 302 281
184 186 190 192 192 194 196 199 201 200 196 189 188 190 180 166 154 143 136 130 126 127 127 127 128 122 114 112 110 111 107 96 88 81 62 33 25 14 10 29 63 75 74 63 76 93 102 126 162 179 186 205 204 200 196 194 201 206 216 221 235 306 156 149 199 143 69 46 40 41 31 328 281 289 298 298 317 320 325 321 303 305 344 333 315
169 184 189 192 195 197 198 199 201 201 194 188 189 188 180 173 163 145 135 134 131 132 133 129 126 123 119 117 114 110 106 100 96 86 69 53 45 34 28 48 73 77 76 77 80 82 91 108 126 154 170 186 188 194 194 185 190 198 211 221 223 13 63 154 185 169 115 62 53 59 59 51 33 339 332 307 277 298 334 346 337 290 308 347 356
170 182 190 195 198 198 197 196 197 198 191 187 189 188 183 179 168 143 132 134 134 137 139 133 128 126 122 120 118 113 107 100 96 92 88 79 63 51 48 61 80 85 83 82 79 77 82 100 114 130 144 148 153 162 172 181 191 192 197 215 201 75 75 96 111 143 151 119 83 70 66 66 65 61 58 71 147 73 42 42 63 82 65 45 39
182 190 197 199 194 189 189 189 190 190 184 183 186 186 186 184 170 148 139 139 138 140 144 140 134 131 127 124 122 118 111 101 96 99 98 86 73 65 60 65 80 83 79 75 72 68 68 84 101 110 121 127 131 132 137 152 168 180 183 179 135 106 88 76 95 132 145 136 126 105 87 76 65 58 65 78 85 88 85 80 82 86 81 71 65
193 201 202 194 183 179 178 176 177 178 177 179 185 186 188 187 175 156 147 146 146 146 147 145 141 137 131 127 127 121 115 109 102 104 103 90 77 68 65 70 72 75 74 67 63 65 73 87 96 98 104 109 110 112 112 116 126 149 163 163 143 124 114 95 105 134 146 127 120 117 105 90 73 59 61 69 75 78 80 80 80 80 81 81 82
198 204 200 186 174 168 160 156 161 169 174 181 188 188 190 192 183 166 155 153 154 154 152 150 147 144 139 133 129 123 119 119 116 113 111 98 81 68 77 95 87 82 68 48 59 81 91 95 95 92 91 91 94 105 109 105 106 117 136 149 148 136 133 131 131 143 146 129 124 119 105 97 90 77 67 68 72 74 74 73 73 75 77 78 81